User: anonymous   Login
Location: Unspecified
(0.0000°N, 0.0000°E)
Time: 17:23:00
(UTC+00:00)
Language:

KMS 4 - Orbit

View from above orbital plane
View from above orbital plane
View from above satellite
View from above satellite

Ground track
Ground track

The orbit data is extracted from the following two-line orbital elements,

1 41332U 16009A   21336.77843390  .00006337  00000-0  17296-3 0  9992
2 41332  97.2690  48.9134 0019131 319.9815  40.0019 15.37599813325575
Epoch (UTC): 02 December 2021 18:40:56
Eccentricity: 0.0019131
inclination: 97.2690°
perigee height: 440 km
apogee height: 466 km
right ascension of ascending node: 48.9134°
argument of perigee: 319.9815°
revolutions per day: 15.37599813
mean anomaly at epoch: 40.0019°
orbit number at epoch: 32557

The dashed part of the orbit path shows where the satellite is in the earth's shadow,  

DLR